TimeCDT,TemperatureF,Dew PointF,Humidity,Sea Level PressureIn,VisibilityMPH,Wind Direction,Wind SpeedMPH,Gust SpeedMPH,PrecipitationIn,Events,Conditions,WindDirDegrees,DateUTC
12:15 AM,41.0,35.6,81,29.90,10.0,ENE,8.1,-,N/A,,Clear,70,2013-04-08 05:15:00
12:35 AM,40.5,35.6,83,29.91,10.0,East,5.8,-,N/A,,Clear,80,2013-04-08 05:35:00
12:55 AM,41.5,36.1,81,29.90,10.0,East,8.1,-,N/A,,Clear,90,2013-04-08 05:55:00
1:15 AM,43.3,36.7,77,29.91,10.0,East,6.9,-,N/A,,Clear,90,2013-04-08 06:15:00
1:35 AM,43.0,37.0,80,29.89,10.0,East,9.2,-,N/A,,Clear,90,2013-04-08 06:35:00
1:55 AM,45.9,38.3,75,29.87,10.0,East,11.5,-,N/A,,Clear,100,2013-04-08 06:55:00
2:15 AM,47.5,38.5,71,29.85,10.0,ESE,10.4,-,N/A,,Scattered Clouds,110,2013-04-08 07:15:00
2:35 AM,48.2,39.0,71,29.85,10.0,ESE,9.2,-,N/A,,Mostly Cloudy,110,2013-04-08 07:35:00
2:55 AM,48.9,39.2,69,29.83,10.0,ESE,12.7,-,N/A,,Scattered Clouds,110,2013-04-08 07:55:00
3:15 AM,49.1,39.4,69,29.82,10.0,ESE,12.7,-,N/A,,Clear,120,2013-04-08 08:15:00
3:35 AM,49.1,39.7,70,29.82,10.0,ESE,10.4,-,N/A,,Clear,120,2013-04-08 08:35:00
3:55 AM,49.8,41.0,72,29.81,10.0,ESE,10.4,-,N/A,,Mostly Cloudy,120,2013-04-08 08:55:00
4:15 AM,49.8,41.9,74,29.80,10.0,ESE,10.4,-,N/A,,Overcast,110,2013-04-08 09:15:00
4:35 AM,49.1,44.1,83,29.79,10.0,ESE,6.9,-,N/A,Rain-Thunderstorm,Light Thunderstorms and Rain,120,2013-04-08 09:35:00
4:55 AM,50.2,48.2,93,29.78,7.0,ESE,5.8,-,0.03,Rain-Thunderstorm,Rain,110,2013-04-08 09:55:00
5:15 AM,49.5,48.2,95,29.78,7.0,ESE,9.2,-,0.02,Rain,Light Rain,110,2013-04-08 10:15:00
5:35 AM,49.8,48.2,94,29.77,10.0,ESE,8.1,-,0.03,Rain,Light Rain,120,2013-04-08 10:35:00
5:55 AM,50.7,49.6,96,29.75,7.0,ESE,8.1,-,0.04,Rain,Light Rain,120,2013-04-08 10:55:00
6:15 AM,55.9,52.9,89,29.74,10.0,SE,16.1,23.0,0.01,Rain,Light Rain,140,2013-04-08 11:15:00
6:35 AM,56.3,52.9,88,29.72,7.0,SSE,15.0,-,0.03,Rain,Light Rain,150,2013-04-08 11:35:00
6:55 AM,56.3,52.9,88,29.70,10.0,SSE,21.9,27.6,0.04,,Mostly Cloudy,150,2013-04-08 11:55:00
7:15 AM,57.0,52.7,85,29.69,10.0,SSE,24.2,31.1,N/A,Rain,Rain,160,2013-04-08 12:15:00
7:35 AM,56.5,52.7,87,29.71,10.0,South,18.4,25.3,N/A,,Light Drizzle,170,2013-04-08 12:35:00
7:55 AM,57.2,52.9,85,29.71,10.0,South,17.3,25.3,N/A,,Overcast,170,2013-04-08 12:55:00
8:15 AM,57.4,53.1,85,29.71,10.0,South,19.6,25.3,N/A,,Overcast,180,2013-04-08 13:15:00
8:35 AM,58.1,52.9,83,29.71,10.0,South,21.9,28.8,N/A,,Overcast,180,2013-04-08 13:35:00
8:55 AM,58.5,53.1,82,29.69,10.0,South,24.2,29.9,N/A,,Overcast,180,2013-04-08 13:55:00
9:15 AM,60.6,54.5,80,29.69,10.0,South,23.0,31.1,N/A,,Mostly Cloudy,190,2013-04-08 14:15:00
9:35 AM,59.9,54.0,81,29.71,10.0,SSW,21.9,31.1,N/A,Rain,Rain,210,2013-04-08 14:35:00
9:55 AM,59.2,54.9,86,29.73,10.0,SW,25.3,43.7,0.03,Rain,Light Rain,230,2013-04-08 14:55:00
10:15 AM,59.0,53.8,83,29.72,10.0,SW,21.9,29.9,N/A,,Overcast,220,2013-04-08 15:15:00
10:35 AM,61.7,54.9,78,29.74,10.0,SW,29.9,38.0,N/A,,Scattered Clouds,230,2013-04-08 15:35:00
10:55 AM,63.1,54.3,73,29.74,10.0,SW,27.6,34.5,N/A,,Clear,230,2013-04-08 15:55:00
11:15 AM,64.4,55.9,74,29.74,10.0,SW,23.0,36.8,N/A,,Scattered Clouds,230,2013-04-08 16:15:00
11:35 AM,65.5,55.2,69,29.75,10.0,WSW,23.0,32.2,N/A,,Mostly Cloudy,240,2013-04-08 16:35:00
11:55 AM,65.7,54.3,67,29.75,10.0,WSW,24.2,32.2,N/A,,Mostly Cloudy,240,2013-04-08 16:55:00
12:15 PM,66.0,53.4,64,29.75,10.0,WSW,27.6,35.7,N/A,,Scattered Clouds,250,2013-04-08 17:15:00
12:35 PM,66.7,53.8,63,29.76,10.0,WSW,25.3,32.2,N/A,,Clear,240,2013-04-08 17:35:00
12:55 PM,67.8,54.1,62,29.76,10.0,WSW,24.2,32.2,N/A,,Scattered Clouds,250,2013-04-08 17:55:00
1:15 PM,68.5,54.9,62,29.77,10.0,WSW,19.6,29.9,N/A,,Clear,250,2013-04-08 18:15:00
1:35 PM,68.5,54.9,62,29.77,10.0,WSW,19.6,26.5,N/A,,Scattered Clouds,250,2013-04-08 18:35:00
1:55 PM,68.7,55.0,62,29.78,10.0,West,18.4,25.3,N/A,,Scattered Clouds,260,2013-04-08 18:55:00
2:15 PM,68.9,53.4,58,29.78,10.0,West,18.4,26.5,N/A,,Scattered Clouds,260,2013-04-08 19:15:00
2:35 PM,69.8,53.1,55,29.78,10.0,WSW,21.9,25.3,N/A,,Clear,250,2013-04-08 19:35:00
2:55 PM,70.2,53.2,55,29.79,10.0,WSW,19.6,24.2,N/A,,Scattered Clouds,250,2013-04-08 19:55:00
3:15 PM,70.3,53.4,55,29.78,10.0,West,12.7,19.6,N/A,,Scattered Clouds,270,2013-04-08 20:15:00
3:35 PM,70.7,52.5,52,29.79,10.0,West,12.7,23.0,N/A,,Scattered Clouds,260,2013-04-08 20:35:00
3:55 PM,70.9,52.5,52,29.79,10.0,West,15.0,18.4,N/A,,Scattered Clouds,270,2013-04-08 20:55:00
4:15 PM,71.4,51.8,50,29.79,10.0,West,11.5,19.6,N/A,,Scattered Clouds,260,2013-04-08 21:15:00
4:35 PM,71.6,52.5,51,29.79,10.0,West,15.0,19.6,N/A,,Scattered Clouds,280,2013-04-08 21:35:00
4:55 PM,70.2,53.1,55,29.81,10.0,West,9.2,-,N/A,,Scattered Clouds,270,2013-04-08 21:55:00
5:15 PM,71.4,52.7,52,29.81,10.0,West,10.4,-,N/A,,Scattered Clouds,280,2013-04-08 22:15:00
5:35 PM,71.6,52.2,50,29.82,10.0,West,10.4,-,N/A,,Clear,280,2013-04-08 22:35:00
5:55 PM,71.1,52.0,51,29.83,10.0,West,5.8,-,N/A,,Clear,280,2013-04-08 22:55:00
6:15 PM,70.3,51.8,52,29.84,10.0,WNW,8.1,-,N/A,,Clear,290,2013-04-08 23:15:00
6:35 PM,67.8,52.0,57,29.85,10.0,West,4.6,-,N/A,,Clear,280,2013-04-08 23:35:00
6:55 PM,68.0,51.8,56,29.85,10.0,Calm,Calm,-,N/A,,Clear,0,2013-04-08 23:55:00
7:15 PM,66.9,51.8,58,29.86,10.0,Calm,Calm,-,N/A,,Clear,0,2013-04-09 00:15:00
7:35 PM,64.6,51.8,63,29.86,10.0,Calm,Calm,-,N/A,,Clear,0,2013-04-09 00:35:00
7:55 PM,61.3,51.8,71,29.87,10.0,NNE,4.6,-,N/A,,Clear,30,2013-04-09 00:55:00
8:15 PM,60.3,51.4,73,29.88,10.0,NNE,10.4,16.1,N/A,,Clear,30,2013-04-09 01:15:00
8:35 PM,54.5,47.3,77,29.89,10.0,NE,8.1,-,N/A,,Clear,40,2013-04-09 01:35:00
8:55 PM,52.7,46.6,80,29.91,10.0,NE,6.9,-,N/A,,Clear,40,2013-04-09 01:55:00
9:15 PM,51.4,46.4,83,29.92,10.0,NE,8.1,-,N/A,,Clear,50,2013-04-09 02:15:00
9:35 PM,52.7,46.6,80,29.95,10.0,East,13.8,17.3,N/A,,Scattered Clouds,90,2013-04-09 02:35:00
9:55 PM,52.0,46.0,80,29.95,10.0,NE,9.2,-,N/A,,Overcast,50,2013-04-09 02:55:00
10:15 PM,51.4,45.7,81,29.95,10.0,ENE,9.2,-,N/A,,Mostly Cloudy,70,2013-04-09 03:15:00
10:35 PM,51.3,45.9,82,29.96,10.0,ENE,9.2,-,N/A,,Mostly Cloudy,70,2013-04-09 03:35:00
10:55 PM,51.4,45.7,81,29.96,10.0,ENE,12.7,-,N/A,,Overcast,60,2013-04-09 03:55:00
11:15 PM,51.1,45.5,81,29.95,10.0,ENE,9.2,-,N/A,Rain-Thunderstorm,Light Thunderstorms and Rain,70,2013-04-09 04:15:00
11:35 PM,51.3,45.5,81,29.96,10.0,ENE,11.5,-,N/A,,Overcast,70,2013-04-09 04:35:00
11:55 PM,50.5,45.9,84,29.96,10.0,East,9.2,-,N/A,Rain-Thunderstorm,Light Thunderstorms and Rain,80,2013-04-09 04:55:00